Back to catalog

CZ-4C DEB

AliveLEO
NORAD 44617·DEBRIS·🇨🇳 China

Launched Apr 10, 2018 from Taiyuan Satellite Launch Center

Loading…

Next Passes (next 24 hours)

TLE

FreshSource: Space-Track

Epoch: Sep 12, 2026, 16:18 UTC

1 44617U 18034J   26255.67918129 -.00000048  00000-0  61900-4 0  9994
2 44617  63.3959 287.0332 0259743   7.5826 352.9008 13.41014693405976

Track CZ-4C DEB in real time with AllMySat

Download on the App Store